Volver al catálogo

STARLINK-31579

ActivoComunicacionesVLEO
NORAD 59267·PAYLOAD·🇺🇸 United States

Lanzado Mar 19, 2024 desde Vandenberg Space Force Base

Loading…

Próximos Pases (próximas 24 horas)

TLE

ActualizadoSource: CelesTrak SupGP

Época: Sep 14, 2026, 20:42 UTC

1 59267C 24050P   26257.86298611  .00033240  00000+0  98257-3 0  2575
2 59267  53.1610  21.7707 0000996  69.4705 137.3099 15.34359281    10

Sigue STARLINK-31579 en tiempo real con AllMySat

Download on the App Store